COSMOS 2251 DEB, 35650

Orbit data source: Space-Track

COSMOS 2251 DEB, 35650 is space debris in LEO originally from a launch on Wed, 16 Jun 1993 UTC launched from the Plesetsk Missile And Space Complex (PKMTR). The debris from Iridium 33, an American commercial communications satellite, has been tracked extensively since its accidental collision with the defunct Russian satellite Cosmos 2251 in 2009. This event, occurring at high speed in low Earth orbit (LEO), generated thousands of pieces of space debris, significantly increasing the risk of further collisions. The Iridium 33 debris cloud has impacted space traffic management and orbital debris mitigation strategies, making it a subject of ongoing study in space situational awareness.

Loading next visibility...
Identifier
35650, 1993-036ANR
Orbit
LEO
Country
Flag of CISCIS
Related business
Manufacturer
Unknown
Mission
Spacecraft
Bus & Motor
Unknown
Mass
Unknown
Launch date (UTC)
1993-06-16 (33 years ago)
Launch vehicle
Unknown
Launch site
Plesetsk Missile And Space Complex (PKMTR)
Object type
Payload
Rocket body
Debris
Shape & HBR
Unknown shape, 0.1 m
Radar Cross Section
Small (<0.1 m²)

Expand to show TLE details & history
Last TLE update: 14 hours ago

TLE from 14 hours ago
0 COSMOS 2251 DEB
1 35650U 93036ANR 26257.28214330  .00009085  00000-0  91202-3 0  9994
2 35650  74.0437 189.5270 0016078 189.3603 326.6689 14.91310055917321
Epoch: 2026-09-14T06:46Z
TLE epoch observation values (Epoch: 2026-09-14T06:46:17.181Z)
Latitude
23.11658°
Longitude
-92.28144°
Altitude
587.038 km
Speed
7.574 km/s
True Right ascension
00h 10m 13s
True Declination
22° 59' 23"
Sunlit
Object was in full shadow at epoch
Visualization orbit readout
Latitude
Unknown
Longitude
Unknown
Altitude
Unknown
Speed
Unknown
Apparent Right ascension
Unknown
Apparent Declination
Unknown
Sunlit
N/A
Visualization observer readout
Local Sidereal Time
13:02:48
Azimuth
Unknown
Elevation
Unknown
Doppler factor
Unknown
Orbital elements
Apogee altitude
602.618 km
Perigee altitude
580.206 km
Semi-major axis
6,969.549 km
Eccentricity
0.00161
Inclination
74.0437°
RAAN
189.527°
Arg. of periapsis
189.3603°
True anomaly
326.56749°
Mean anomaly
326.6689°
Eccentric anomaly
326.61821°
Mean motion
3.73023 °/min
Orbital period
96.51 mins
BSTAR
0.00091202
Loading maneuver chart data...
Computing Atmospheric mass density...

Documentation

Showing up to 5 results
|